Time,TemperatureF,DewpointF,PressureIn,WindDirection,WindDirectionDegrees,WindSpeedMPH,WindSpeedGustMPH,Humidity,HourlyPrecipIn,Conditions,Clouds,dailyrainin,SolarRadiationWatts/m^2,SoftwareType,DateUTC
2013-06-11 00:01:00,55.2,46.0,29.96,WNW,298,0.0,2.0,71,0.00,,,0.04,0,weatherlink.com 1.10,2013-06-11 07:01:00,
2013-06-11 00:31:00,54.6,45.0,29.96,WNW,298,0.0,2.0,71,0.00,,,0.00,0,weatherlink.com 1.10,2013-06-11 07:31:00,
2013-06-11 00:46:00,54.6,45.0,29.96,WNW,297,0.0,0.0,71,0.00,,,0.00,0,weatherlink.com 1.10,2013-06-11 07:46:00,
2013-06-11 01:01:00,54.8,46.0,29.96,WNW,298,0.0,0.0,71,0.00,,,0.00,0,weatherlink.com 1.10,2013-06-11 08:01:00,
2013-06-11 01:16:00,54.9,46.0,29.96,WNW,298,0.0,0.0,71,0.00,,,0.00,0,weatherlink.com 1.10,2013-06-11 08:16:00,
2013-06-11 01:31:00,55.1,46.0,29.96,WNW,298,0.0,0.0,71,0.00,,,0.00,0,weatherlink.com 1.10,2013-06-11 08:31:00,
2013-06-11 01:46:00,55.1,46.0,29.96,WNW,297,0.0,1.0,71,0.00,,,0.00,0,weatherlink.com 1.10,2013-06-11 08:46:00,
2013-06-11 02:01:00,54.9,46.0,29.96,WNW,297,0.0,2.0,71,0.00,,,0.00,0,weatherlink.com 1.10,2013-06-11 09:01:00,
2013-06-11 02:16:00,54.4,45.0,29.96,WNW,298,0.0,2.0,71,0.00,,,0.00,0,weatherlink.com 1.10,2013-06-11 09:16:00,
2013-06-11 02:46:00,53.9,45.0,29.95,WNW,298,0.0,0.0,71,0.00,,,0.00,0,weatherlink.com 1.10,2013-06-11 09:46:00,
2013-06-11 03:01:00,54.2,45.0,29.94,WNW,298,0.0,0.0,71,0.00,,,0.00,0,weatherlink.com 1.10,2013-06-11 10:01:00,
2013-06-11 03:16:00,54.2,45.0,29.95,SW,215,0.0,5.0,71,0.00,,,0.00,0,weatherlink.com 1.10,2013-06-11 10:16:00,
2013-06-11 03:31:00,53.9,45.0,29.95,SW,215,0.0,2.0,71,0.00,,,0.00,0,weatherlink.com 1.10,2013-06-11 10:31:00,
2013-06-11 03:46:00,54.2,45.0,29.95,SW,215,0.0,0.0,71,0.00,,,0.00,0,weatherlink.com 1.10,2013-06-11 10:46:00,
2013-06-11 04:01:00,54.5,45.0,29.95,SW,215,0.0,0.0,71,0.00,,,0.00,0,weatherlink.com 1.10,2013-06-11 11:01:00,
2013-06-11 04:16:00,54.4,45.0,29.94,SW,215,0.0,0.0,71,0.00,,,0.00,0,weatherlink.com 1.10,2013-06-11 11:16:00,
2013-06-11 04:31:00,54.1,45.0,29.94,SW,215,0.0,0.0,71,0.00,,,0.00,0,weatherlink.com 1.10,2013-06-11 11:31:00,
2013-06-11 04:46:00,54.5,45.0,29.94,SW,215,0.0,0.0,71,0.00,,,0.00,0,weatherlink.com 1.10,2013-06-11 11:46:00,
2013-06-11 05:01:00,54.5,45.0,29.95,SW,215,0.0,0.0,71,0.00,,,0.00,0,weatherlink.com 1.10,2013-06-11 12:01:00,
2013-06-11 05:16:00,54.5,45.0,29.95,SW,215,0.0,0.0,71,0.00,,,0.00,0,weatherlink.com 1.10,2013-06-11 12:16:00,
2013-06-11 05:31:00,54.1,45.0,29.95,SW,215,0.0,0.0,71,0.00,,,0.00,0,weatherlink.com 1.10,2013-06-11 12:31:00,
2013-06-11 05:46:00,54.0,45.0,29.95,SW,215,0.0,0.0,72,0.00,,,0.00,0,weatherlink.com 1.10,2013-06-11 12:46:00,
2013-06-11 06:01:00,53.8,45.0,29.95,SW,215,0.0,0.0,72,0.00,,,0.00,11,weatherlink.com 1.10,2013-06-11 13:01:00,
2013-06-11 06:16:00,53.8,45.0,29.95,SW,215,0.0,0.0,71,0.00,,,0.00,23,weatherlink.com 1.10,2013-06-11 13:16:00,
2013-06-11 06:31:00,53.7,45.0,29.95,SW,215,0.0,0.0,72,0.00,,,0.00,39,weatherlink.com 1.10,2013-06-11 13:31:00,
2013-06-11 06:46:00,53.7,44.0,29.95,SSW,211,0.0,0.0,71,0.00,,,0.00,113,weatherlink.com 1.10,2013-06-11 13:46:00,
2013-06-11 07:02:00,54.6,45.0,29.96,SSW,213,1.0,3.0,71,0.00,,,0.00,158,weatherlink.com 1.10,2013-06-11 14:02:00,
2013-06-11 07:17:00,54.9,46.0,29.96,SW,225,0.0,1.0,71,0.00,,,0.00,211,weatherlink.com 1.10,2013-06-11 14:17:00,
2013-06-11 07:32:00,55.1,46.0,29.97,SW,231,0.0,2.0,71,0.00,,,0.00,260,weatherlink.com 1.10,2013-06-11 14:32:00,
2013-06-11 07:47:00,54.8,46.0,29.97,WSW,244,0.0,2.0,72,0.00,,,0.00,315,weatherlink.com 1.10,2013-06-11 14:47:00,
2013-06-11 08:02:00,56.0,47.0,29.96,WSW,244,0.0,1.0,71,0.00,,,0.00,369,weatherlink.com 1.10,2013-06-11 15:02:00,
2013-06-11 08:17:00,57.5,49.0,29.97,SW,236,2.0,3.0,72,0.00,,,0.00,420,weatherlink.com 1.10,2013-06-11 15:17:00,
2013-06-11 08:32:00,55.8,47.0,29.97,WSW,240,3.0,4.0,72,0.00,,,0.00,471,weatherlink.com 1.10,2013-06-11 15:32:00,
2013-06-11 08:47:00,56.6,48.0,29.97,WSW,243,2.0,6.0,72,0.00,,,0.00,550,weatherlink.com 1.10,2013-06-11 15:47:00,
2013-06-11 09:02:00,57.2,48.0,29.97,West,261,2.0,4.0,72,0.00,,,0.00,570,weatherlink.com 1.10,2013-06-11 16:02:00,
2013-06-11 09:17:00,57.0,48.0,29.98,WSW,237,4.0,6.0,72,0.00,,,0.00,619,weatherlink.com 1.10,2013-06-11 16:17:00,
2013-06-11 09:32:00,57.8,48.0,29.98,WSW,249,1.0,6.0,71,0.00,,,0.00,659,weatherlink.com 1.10,2013-06-11 16:32:00,
2013-06-11 10:02:00,57.8,48.0,29.99,SW,224,5.0,9.0,71,0.00,,,0.00,738,weatherlink.com 1.10,2013-06-11 17:02:00,
2013-06-11 10:17:00,58.3,49.0,29.99,SW,219,3.0,8.0,71,0.00,,,0.00,777,weatherlink.com 1.10,2013-06-11 17:17:00,
2013-06-11 10:32:00,58.2,49.0,30.00,West,273,3.0,9.0,71,0.00,,,0.00,812,weatherlink.com 1.10,2013-06-11 17:32:00,
2013-06-11 10:48:00,58.0,49.0,30.00,West,260,3.0,10.0,71,0.00,,,0.00,846,weatherlink.com 1.10,2013-06-11 17:48:00,
2013-06-11 11:03:00,58.6,49.0,30.00,WNW,289,3.0,10.0,70,0.00,,,0.00,874,weatherlink.com 1.10,2013-06-11 18:03:00,
2013-06-11 11:18:00,58.8,49.0,30.01,WSW,239,5.0,9.0,70,0.00,,,0.00,900,weatherlink.com 1.10,2013-06-11 18:18:00,
2013-06-11 11:33:00,58.7,49.0,30.01,SW,225,5.0,12.0,70,0.00,,,0.00,928,weatherlink.com 1.10,2013-06-11 18:33:00,
2013-06-11 11:48:00,58.8,49.0,30.01,West,262,3.0,10.0,70,0.00,,,0.00,947,weatherlink.com 1.10,2013-06-11 18:48:00,
2013-06-11 12:03:00,58.7,49.0,30.01,West,259,1.0,11.0,70,0.00,,,0.00,965,weatherlink.com 1.10,2013-06-11 19:03:00,
2013-06-11 12:18:00,59.3,49.0,30.00,WSW,246,7.0,12.0,69,0.00,,,0.00,981,weatherlink.com 1.10,2013-06-11 19:18:00,
2013-06-11 12:33:00,60.5,50.0,30.00,SW,236,4.0,12.0,68,0.00,,,0.00,993,weatherlink.com 1.10,2013-06-11 19:33:00,
2013-06-11 12:48:00,60.5,49.0,30.00,WSW,240,3.0,13.0,67,0.00,,,0.00,1000,weatherlink.com 1.10,2013-06-11 19:48:00,
2013-06-11 13:03:00,60.1,49.0,29.99,West,280,4.0,12.0,68,0.00,,,0.00,1005,weatherlink.com 1.10,2013-06-11 20:03:00,
2013-06-11 13:18:00,60.4,50.0,29.99,WSW,240,12.0,12.0,68,0.00,,,0.00,1002,weatherlink.com 1.10,2013-06-11 20:18:00,
2013-06-11 13:33:00,60.2,50.0,29.99,WNW,286,0.0,13.0,68,0.00,,,0.00,1000,weatherlink.com 1.10,2013-06-11 20:33:00,
2013-06-11 13:48:00,60.4,49.0,29.98,West,266,8.0,14.0,67,0.00,,,0.00,995,weatherlink.com 1.10,2013-06-11 20:48:00,
2013-06-11 14:03:00,61.0,50.0,29.97,WNW,289,4.0,14.0,67,0.00,,,0.00,986,weatherlink.com 1.10,2013-06-11 21:03:00,
2013-06-11 14:18:00,61.1,50.0,29.97,WSW,250,4.0,14.0,67,0.00,,,0.00,972,weatherlink.com 1.10,2013-06-11 21:18:00,
2013-06-11 14:33:00,60.9,50.0,29.96,WNW,301,8.0,14.0,67,0.00,,,0.00,951,weatherlink.com 1.10,2013-06-11 21:33:00,
2013-06-11 14:48:00,60.9,50.0,29.97,WSW,238,4.0,15.0,67,0.00,,,0.00,932,weatherlink.com 1.10,2013-06-11 21:48:00,
2013-06-11 15:03:00,61.0,50.0,29.96,WSW,237,6.0,15.0,67,0.00,,,0.00,909,weatherlink.com 1.10,2013-06-11 22:03:00,
2013-06-11 15:18:00,61.1,50.0,29.96,West,263,7.0,15.0,67,0.00,,,0.00,881,weatherlink.com 1.10,2013-06-11 22:18:00,
2013-06-11 15:33:00,61.4,50.0,29.95,SW,223,8.0,14.0,66,0.00,,,0.00,851,weatherlink.com 1.10,2013-06-11 22:33:00,
2013-06-11 15:48:00,61.9,50.0,29.94,WSW,241,4.0,15.0,65,0.00,,,0.00,819,weatherlink.com 1.10,2013-06-11 22:48:00,
2013-06-11 16:03:00,62.0,50.0,29.94,West,261,2.0,12.0,65,0.00,,,0.00,786,weatherlink.com 1.10,2013-06-11 23:03:00,
2013-06-11 16:18:00,62.2,50.0,29.94,WSW,249,15.0,17.0,65,0.00,,,0.00,749,weatherlink.com 1.10,2013-06-11 23:18:00,
2013-06-11 16:33:00,61.2,50.0,29.93,WNW,294,6.0,17.0,66,0.00,,,0.00,714,weatherlink.com 1.10,2013-06-11 23:33:00,
2013-06-11 16:48:00,60.4,49.0,29.94,SW,225,5.0,20.0,66,0.00,,,0.00,670,weatherlink.com 1.10,2013-06-11 23:48:00,
2013-06-11 17:03:00,60.7,49.0,29.93,WNW,294,9.0,16.0,66,0.00,,,0.00,626,weatherlink.com 1.10,2013-06-12 00:03:00,
2013-06-11 17:18:00,61.3,49.0,29.93,West,260,10.0,15.0,65,0.00,,,0.00,582,weatherlink.com 1.10,2013-06-12 00:18:00,
2013-06-11 17:33:00,60.4,49.0,29.93,West,277,5.0,17.0,66,0.00,,,0.00,543,weatherlink.com 1.10,2013-06-12 00:33:00,
2013-06-11 17:48:00,60.5,49.0,29.93,West,273,6.0,16.0,66,0.00,,,0.00,494,weatherlink.com 1.10,2013-06-12 00:48:00,
2013-06-11 18:03:00,61.1,49.0,29.92,West,278,11.0,14.0,65,0.00,,,0.00,446,weatherlink.com 1.10,2013-06-12 01:03:00,
2013-06-11 18:18:00,60.6,49.0,29.92,NW,306,9.0,16.0,66,0.00,,,0.00,399,weatherlink.com 1.10,2013-06-12 01:18:00,
2013-06-11 18:33:00,60.1,49.0,29.92,West,281,6.0,13.0,66,0.00,,,0.00,348,weatherlink.com 1.10,2013-06-12 01:33:00,
2013-06-11 18:48:00,60.7,49.0,29.91,NW,304,9.0,12.0,65,0.00,,,0.00,297,weatherlink.com 1.10,2013-06-12 01:48:00,
2013-06-11 19:03:00,60.5,49.0,29.91,West,269,6.0,13.0,65,0.00,,,0.00,248,weatherlink.com 1.10,2013-06-12 02:03:00,
2013-06-11 19:18:00,59.8,48.0,29.92,WNW,291,6.0,14.0,66,0.00,,,0.00,197,weatherlink.com 1.10,2013-06-12 02:18:00,
2013-06-11 19:33:00,59.5,48.0,29.92,West,261,4.0,13.0,66,0.00,,,0.00,142,weatherlink.com 1.10,2013-06-12 02:33:00,
2013-06-11 19:48:00,59.5,48.0,29.92,West,281,5.0,11.0,66,0.00,,,0.00,77,weatherlink.com 1.10,2013-06-12 02:48:00,
2013-06-11 20:03:00,59.7,48.0,29.91,WNW,287,4.0,6.0,66,0.00,,,0.00,47,weatherlink.com 1.10,2013-06-12 03:03:00,
2013-06-11 20:18:00,59.0,48.0,29.92,WNW,286,2.0,4.0,66,0.00,,,0.00,19,weatherlink.com 1.10,2013-06-12 03:18:00,
2013-06-11 20:33:00,57.7,47.0,29.92,WNW,292,3.0,4.0,67,0.00,,,0.00,9,weatherlink.com 1.10,2013-06-12 03:33:00,
2013-06-11 20:48:00,56.9,46.0,29.91,WNW,293,0.0,3.0,68,0.00,,,0.00,0,weatherlink.com 1.10,2013-06-12 03:48:00,
2013-06-11 21:03:00,56.2,46.0,29.92,WNW,293,0.0,3.0,68,0.00,,,0.00,0,weatherlink.com 1.10,2013-06-12 04:03:00,
2013-06-11 21:19:00,55.1,45.0,29.93,WNW,293,1.0,2.0,69,0.00,,,0.00,0,weatherlink.com 1.10,2013-06-12 04:19:00,
2013-06-11 21:34:00,55.2,45.0,29.93,NW,305,0.0,5.0,69,0.00,,,0.00,0,weatherlink.com 1.10,2013-06-12 04:34:00,
2013-06-11 21:49:00,55.2,45.0,29.94,NW,317,1.0,3.0,69,0.00,,,0.00,0,weatherlink.com 1.10,2013-06-12 04:49:00,
2013-06-11 22:04:00,54.1,44.0,29.94,NW,321,1.0,2.0,69,0.00,,,0.00,0,weatherlink.com 1.10,2013-06-12 05:04:00,
2013-06-11 22:19:00,52.9,43.0,29.94,NW,320,0.0,0.0,69,0.00,,,0.00,0,weatherlink.com 1.10,2013-06-12 05:19:00,
2013-06-11 22:34:00,51.8,42.0,29.95,NW,320,0.0,1.0,70,0.00,,,0.00,0,weatherlink.com 1.10,2013-06-12 05:34:00,
2013-06-11 22:49:00,51.8,43.0,29.95,NNW,344,0.0,5.0,71,0.00,,,0.00,0,weatherlink.com 1.10,2013-06-12 05:49:00,
2013-06-11 23:04:00,52.5,43.0,29.95,NNW,336,0.0,4.0,70,0.00,,,0.00,0,weatherlink.com 1.10,2013-06-12 06:04:00,
2013-06-11 23:19:00,52.8,43.0,29.95,NNE,13,3.0,5.0,70,0.00,,,0.00,0,weatherlink.com 1.10,2013-06-12 06:19:00,
2013-06-11 23:34:00,52.6,43.0,29.95,NNE,23,1.0,6.0,70,0.00,,,0.00,0,weatherlink.com 1.10,2013-06-12 06:34:00,
2013-06-11 23:49:00,51.5,42.0,29.95,NNE,30,4.0,5.0,70,0.00,,,0.00,0,weatherlink.com 1.10,2013-06-12 06:49:00,